Location: ????? ??????
(37.8317°N, 23.8750°E)
Time: 16:24:21
(UTC+00:00)

COSMOS 2455 - Pass Details

Date: 20 January 2021
Orbit: 901 x 908 km, 67.1° (Epoch: 02 March)

Event Time Altitude Azimuth Distance (km) Brightness Sun altitude
Rises 15:54:10 0° 195° (SSW) 3,513 6.5 -4.4°
Reaches altitude 10° 15:56:41 10° 192° (SSW) 2,577 5.7 -4.8°
Maximum altitude 16:02:34 62° 113° (ESE) 1,013 3.0 -5.9°
Drops below altitude 10° 16:08:30 10° 34° (NE) 2,596 4.8 -7.0°
Enters shadow 16:10:52 - 32° (NNE) 3,481 5.4 -7.4°
